Change the Weather History Date:

Tuesday, July 30, 2013

  Actual Average (KCLT) Record (KCLT)
Temperature  
Mean Temperature 76 °F 78 °F  
Max Temperature 84 °F 89 °F 101 °F (2011)
Min Temperature 68 °F 68 °F 58 °F (1914)
Degree Days  
Heating Degree Days 0 0  
Month to date heating degree days 0  
Since 1 June heating degree days 3  
Since 1 July heating degree days 0  
Cooling Degree Days 11 13  
Month to date cooling degree days 412  
Year to date cooling degree days 886  
Since 1 June cooling degree days 723  
Growing Degree Days 26 (Base 50)    
Moisture  
Dew Point 67 °F    
Average Humidity 80    
Maximum Humidity 96    
Minimum Humidity 51    
Precipitation  
Precipitation 0.01 in 0.14 in 4.24 in (1879)
Month to date precipitation 3.54  
Year to date precipitation 24.24  
Snow  
Snow 0.00 in 0.00 in 0.00 in ()
Month to date snowfall 0.0  
Since 1 June snowfall 0.0  
Since 1 July snowfall 0.0  
Snow Depth -    
Sea Level Pressure  
Sea Level Pressure 30.18 in    
Wind  
Wind Speed 2 mph (NE)    
Max Wind Speed 8 mph    
Max Gust Speed -    
Visibility 8 miles    
Events      
T = Trace of Precipitation, MM = Missing Value Source: NWS Daily Summary

Daily Weather History Graph

Daily Weather History Graph

Search for Another Location

Airport or City:

Trip Planner

Search our weather history database for the weather conditions in past years. The results will help you decide how hot, cold, wet, or windy it might be!

Date:

Astronomy

Jul. 30, 2013 Rise Set
Actual Time 6:32 AM EDT 8:29 PM EDT
Civil Twilight 6:04 AM EDT 8:57 PM EDT
Nautical Twilight 5:30 AM EDT 9:31 PM EDT
Astronomical Twilight 4:53 AM EDT 10:07 PM EDT
Moon 12:47 AM EDT (7/30) 2:48 PM EDT (7/30)
Length of Visible Light 14h 52m
Length of Day
13h 57m
Last Quarter, 41% of the Moon is Illuminated
Jul 30
Last Quarter
Aug 6
New
Aug 14
First Quarter
Aug 20
Full
Aug 28
Last Quarter

Hourly Weather History & Observations

Time (EDT) Temp. Heat Index Dew Point Humidity Pressure Visibility Wind Dir Wind Speed Gust Speed Precip Events Conditions
12:54 AM 69.1 °F - 68.0 °F 96% 30.16 in 5.0 mi Calm Calm - N/A   Clear
1:49 AM 68.0 °F - 66.2 °F 94% 30.18 in 1.8 mi Calm Calm - N/A   Clear
1:50 AM 68.0 °F - 66.9 °F 96% 30.17 in 1.8 mi Calm Calm - N/A   Clear
1:57 AM 68.0 °F - 66.2 °F 94% 30.18 in 3.0 mi Calm Calm - N/A   Clear
2:44 AM 68.0 °F - 66.2 °F 94% 30.17 in 5.0 mi Calm Calm - N/A   Scattered Clouds
2:54 AM 69.1 °F - 68.0 °F 96% 30.15 in 6.0 mi North 3.5 mph - N/A   Mostly Cloudy
3:49 AM 69.8 °F - 68.0 °F 94% 30.18 in 5.0 mi Calm Calm - N/A   Overcast
3:54 AM 69.1 °F - 68.0 °F 96% 30.15 in 5.0 mi Calm Calm - 0.01 in   Overcast
4:29 AM 69.8 °F - 66.2 °F 88% 30.18 in 7.0 mi North 4.6 mph - N/A   Mostly Cloudy
4:39 AM 69.8 °F - 68.0 °F 94% 30.18 in 7.0 mi Calm Calm - N/A   Scattered Clouds
4:54 AM 69.1 °F - 66.9 °F 93% 30.17 in 6.0 mi NNE 3.5 mph - N/A   Clear
5:54 AM 69.1 °F - 66.9 °F 93% 30.18 in 8.0 mi NNE 5.8 mph - N/A   Mostly Cloudy
6:54 AM 68.0 °F - 66.0 °F 93% 30.19 in 8.0 mi NNE 4.6 mph - N/A   Partly Cloudy
7:54 AM 69.1 °F - 66.0 °F 90% 30.21 in 10.0 mi NE 6.9 mph - N/A   Clear
8:54 AM 72.0 °F - 64.9 °F 78% 30.22 in 10.0 mi NNE 8.1 mph - N/A   Partly Cloudy
9:54 AM 75.0 °F - 64.0 °F 69% 30.22 in 10.0 mi ENE 6.9 mph - N/A   Clear
10:54 AM 78.1 °F - 62.1 °F 58% 30.22 in 10.0 mi NNE 5.8 mph - N/A   Clear
11:54 AM 80.1 °F 81.5 °F 63.0 °F 56% 30.22 in 10.0 mi East 5.8 mph - N/A   Clear
12:54 PM 80.1 °F 81.2 °F 62.1 °F 54% 30.20 in 10.0 mi South 3.5 mph - N/A   Partly Cloudy
1:54 PM 82.0 °F 83.1 °F 63.0 °F 52% 30.19 in 10.0 mi Variable 4.6 mph - N/A   Clear
2:54 PM 82.9 °F 84.0 °F 63.0 °F 51% 30.17 in 10.0 mi Calm Calm - N/A   Partly Cloudy
3:54 PM 82.9 °F 84.4 °F 64.0 °F 53% 30.16 in 10.0 mi East 3.5 mph - N/A   Clear
4:54 PM 84.0 °F 85.4 °F 64.0 °F 51% 30.16 in 10.0 mi Calm Calm - N/A   Clear
5:54 PM 82.9 °F 84.6 °F 64.9 °F 54% 30.15 in 10.0 mi SE 4.6 mph - N/A   Partly Cloudy
6:54 PM 81.0 °F 84.1 °F 69.1 °F 67% 30.14 in 10.0 mi Calm Calm - N/A   Clear
7:54 PM 78.1 °F - 71.1 °F 79% 30.14 in 10.0 mi Calm Calm - N/A   Clear
8:54 PM 75.9 °F - 71.1 °F 85% 30.15 in 10.0 mi Calm Calm - N/A   Clear
9:54 PM 75.0 °F - 70.0 °F 84% 30.15 in 10.0 mi Calm Calm - N/A   Clear
10:54 PM 73.0 °F - 71.1 °F 93% 30.17 in 10.0 mi Calm Calm - N/A   Clear
11:54 PM 73.0 °F - 71.1 °F 93% 30.16 in 9.0 mi Calm Calm - N/A   Clear